Vancouver, British Columbia

6:23 PM PST on January 19, 2017 (GMT -0800)
Vancouver International Airport

Weather History for CYVR - January, 2014

Change the Weather History Date:

Sunday, January 12, 2014

  Actual Average Record
Temperature  
Mean Temperature 41 °F -  
Max Temperature 43 °F 44 °F 51 °F (1999)
Min Temperature 39 °F 33 °F 15 °F (1998)
Degree Days  
Heating Degree Days 24    
Moisture  
Dew Point 38 °F    
Average Humidity 87    
Maximum Humidity 100    
Minimum Humidity 66    
Precipitation  
Precipitation 0.20 in 0.18 in - ()
Sea Level Pressure  
Sea Level Pressure 29.99 in    
Wind  
Wind Speed 12 mph ()    
Max Wind Speed 29 mph    
Max Gust Speed 37 mph    
Visibility 12.0 miles    
Events Rain    
Averages and records for this station are not official NWS values.
T = Trace of Precipitation, MM = Missing Value Source: Averaged Metar Reports

Daily Weather History Graph

Daily Weather History Graph

Search for Another Location

Airport or City:

Trip Planner

Search our weather history database for the weather conditions in past years. The results will help you decide how hot, cold, wet, or windy it might be!

Date:

Astronomy

Jan. 12, 2014 Rise Set
Actual Time 8:03 AM PST 4:38 PM PST
Civil Twilight 7:27 AM PST 5:15 PM PST
Nautical Twilight 6:47 AM PST 5:54 PM PST
Astronomical Twilight 6:09 AM PST 6:33 PM PST
Moon 2:12 PM PST (1/12) 5:05 AM PST (1/12)
Length of Visible Light 9h 47m
Length of Day
8h 34m
Waxing Gibbous, 90% of the Moon is Illuminated
Jan 12
Waxing Gibbous
Jan 15
Full
Jan 23
Last Quarter
Jan 30
New
Feb 6
First Quarter

Hourly Weather History & Observations

Time (PST) Temp. Windchill Dew Point Humidity Pressure Visibility Wind Dir Wind Speed Gust Speed Precip Events Conditions
12:00 AM 42.8 °F 32.5 °F 32.0 °F 66% 29.69 in 15.0 mi West 28.8 mph 36.8 mph N/A   Mostly Cloudy
1:00 AM 42.8 °F 34.3 °F 33.8 °F 70% 29.75 in 15.0 mi West 19.6 mph - N/A   Mostly Cloudy
2:00 AM 42.8 °F 34.0 °F 33.8 °F 70% 29.81 in 15.0 mi West 20.7 mph - N/A   Mostly Cloudy
3:00 AM 42.8 °F 34.8 °F 35.6 °F 76% 29.86 in 15.0 mi West 17.3 mph - N/A   Mostly Cloudy
4:00 AM 42 °F - 35 °F 68% 29.90 in 15 mi West 12.7 mph - -   Scattered Clouds
4:00 AM 42.8 °F 36.2 °F 35.6 °F 76% 29.89 in 15.0 mi West 12.7 mph - N/A   Mostly Cloudy
5:00 AM 42.8 °F 37.0 °F 37.4 °F 81% 29.91 in 15.0 mi West 10.4 mph - N/A   Mostly Cloudy
6:00 AM 41.0 °F 36.4 °F 37.4 °F 87% 29.94 in 15.0 mi SSW 6.9 mph - N/A   Overcast
6:14 AM 42.8 °F 37.5 °F 37.4 °F 81% 29.95 in 15.0 mi South 9.2 mph - N/A Rain Light Rain Showers
7:00 AM 42.8 °F 37.5 °F 37.4 °F 81% 29.96 in 12.0 mi South 9.2 mph - N/A Rain Light Rain Showers
8:00 AM 41.0 °F 38.0 °F 37.4 °F 87% 29.97 in 8.0 mi SSE 4.6 mph - N/A Rain Light Rain Showers
9:00 AM 39.2 °F 34.2 °F 37.4 °F 93% 30.00 in 8.0 mi ENE 6.9 mph - N/A Rain Light Rain Showers
9:18 AM 39.2 °F 33.6 °F 37.4 °F 93% 30.01 in 6.0 mi East 8.1 mph - N/A Rain Light Rain
10:00 AM 40 °F - 38 °F 91% 30.03 in 6 mi East 10.4 mph - - Rain Light Rain
10:00 AM 39.2 °F 33.0 °F 39.2 °F 100% 30.02 in 6.0 mi East 9.2 mph - N/A Rain Light Rain
11:00 AM 39.2 °F 32.5 °F 39.2 °F 100% 30.02 in 3.0 mi East 10.4 mph - N/A Rain Light Rain
11:49 AM 39.2 °F 33.0 °F 37.4 °F 93% 30.01 in 6.0 mi NE 9.2 mph - N/A Rain Light Rain
12:00 PM 39.2 °F 32.0 °F 37.4 °F 93% 30.01 in 6.0 mi NE 11.5 mph - N/A Rain Light Rain
1:00 PM 41.0 °F 35.2 °F 37.4 °F 87% 30.00 in 12.0 mi East 9.2 mph - N/A   Overcast
1:19 PM 41.0 °F 33.9 °F 37.4 °F 87% 29.99 in 15.0 mi ENE 12.7 mph - N/A   Overcast
2:00 PM 41.0 °F 34.7 °F 37.4 °F 87% 30.01 in 15.0 mi ENE 10.4 mph - N/A   Overcast
2:37 PM 41.0 °F 34.7 °F 39.2 °F 93% 30.02 in 12.0 mi ENE 10.4 mph - N/A   Overcast
2:48 PM 41.0 °F 34.7 °F 39.2 °F 93% 30.02 in 12.0 mi ENE 10.4 mph - N/A Rain Light Rain
3:00 PM 41.0 °F 35.8 °F 39.2 °F 93% 30.03 in 12.0 mi ENE 8.1 mph - N/A   Overcast
4:00 PM 42 °F - 40 °F 90% 30.04 in 12 mi NE 10.4 mph - - Rain Light Rain
4:00 PM 42.8 °F 37.5 °F 39.2 °F 87% 30.04 in 12.0 mi NE 9.2 mph - N/A Rain Light Rain
4:18 PM 42.8 °F 37.5 °F 39.2 °F 87% 30.05 in 12.0 mi ENE 9.2 mph - N/A   Overcast
5:00 PM 42.8 °F 39.3 °F 39.2 °F 87% 30.05 in 12.0 mi ENE 5.8 mph - N/A   Mostly Cloudy
6:00 PM 42.8 °F 38.6 °F 41.0 °F 93% 30.06 in 12.0 mi ENE 6.9 mph - N/A   Overcast
7:00 PM 42.8 °F 39.3 °F 41.0 °F 93% 30.08 in 12.0 mi ENE 5.8 mph - N/A   Overcast
8:00 PM 39.2 °F 35.0 °F 37.4 °F 93% 30.09 in 15.0 mi East 5.8 mph - N/A   Mostly Cloudy
9:00 PM 39.2 °F 34.2 °F 37.4 °F 93% 30.11 in 15.0 mi East 6.9 mph - N/A   Mostly Cloudy
10:00 PM 39 °F - 38 °F 96% 30.14 in 15 mi ENE 4.6 mph - -   Partly Cloudy
10:00 PM 39.2 °F 35.9 °F 39.2 °F 100% 30.14 in 15.0 mi NE 4.6 mph - N/A   Scattered Clouds
11:00 PM 41.0 °F 39.0 °F 39.2 °F 93% 30.16 in 15.0 mi NE 3.5 mph - N/A   Mostly Cloudy